Home   Weather   Makassar   Past weeks

Flag for Indonesia Past Weather in Makassar, South Sulawesi, Indonesia — Yesterday and Last 2 Weeks

75 °F

Passing clouds.

Feels Like: 73 °F
Forecast: 80 / 86 °F
Wind: 1 mph from North

Location: Ujung Pandang / Hasanuddin

Current Time: Oct 24, 2016 at 2:08:20 AM

Latest Report: Oct 24, 2016 at 1:30 AM

Visibility: 5 mi

Pressure: 29.80 "Hg

Humidity: 100%

Dew Point: 75 °F

Location of MakassarLocation

Past Weather in Makassar — Graph


Makassar Temperature Yesterday

Maximum temperature yesterday: 90 °F (at 2:00 PM)
Minimum temperature yesterday: 75 °F (at 1:00 AM)
Average temperature yesterday: 81 °F

High & Low Weather Summary for the Past Weeks

High93 °F (Oct 15, 12:30 PM)100% (Oct 9, 1:00 AM)29.92 "Hg (Oct 9, 1:00 AM)
Low72 °F (Oct 16, 5:30 AM)20% (Oct 12, 4:30 PM)29.65 "Hg (Oct 17, 4:00 PM)
Average82 °F86%29.79 "Hg
* Reported Oct 9 1:00 AM — Oct 24 1:00 AM, Makassar, Weather by CustomWeather, © 2016

Note: Actual official high and low records may vary slightly from our data, if they occured in-between our weather recording intervals... More about our weather records


Makassar Weather History for the Previous 24 Hours

Scroll right to see more
Time TempWeatherWind HumidityBarometerVisibility
1:00 AM
Mon, Oct 24
77 °FPassing clouds.2 mph100%29.80 "Hg5 mi
12:30 AM77 °FPassing clouds.1 mph100%29.83 "Hg5 mi
12:00 AM77 °FPassing clouds.3 mph100%29.83 "Hg5 mi
11:30 PM
Sun, Oct 23
77 °FPassing clouds.1 mph100%29.83 "Hg5 mi
11:00 PM77 °FPassing clouds.No wind100%29.86 "Hg5 mi
10:30 PM77 °FPassing clouds.2 mph100%29.86 "Hg5 mi
10:00 PM77 °FPassing clouds.2 mph100%29.86 "Hg5 mi
9:30 PM77 °FPassing clouds.No wind100%29.86 "Hg5 mi
9:00 PM77 °FPassing clouds.2 mph100%29.86 "Hg4 mi
8:30 PM77 °FLight rain. Passing clouds.3 mph100%29.86 "Hg4 mi
8:00 PM77 °FLight rain. Passing clouds.5 mph100%29.86 "Hg4 mi
7:30 PM77 °FLight rain. Passing clouds.6 mph100%29.83 "Hg4 mi
7:00 PM77 °FLight rain. Passing clouds.3 mph100%29.83 "Hg4 mi
6:30 PM77 °FThunderstorms. Passing clouds.7 mph100%29.83 "Hg4 mi
6:00 PM79 °FLight rain. Passing clouds.5 mph100%29.80 "Hg3 mi
5:30 PM79 °FThunderstorms. Scattered clouds.2 mph100%29.80 "Hg2 mi
5:00 PM84 °FRain. Scattered clouds.9 mph100%N/A3 mi
4:30 PM84 °FLight rain. Scattered clouds.5 mph94%N/A5 mi
4:03 PM86 °FThunderstorms. Scattered clouds.6 mph84%N/A5 mi
4:00 PM86 °FLight rain. Scattered clouds.6 mph84%N/A5 mi
3:30 PM88 °FScattered clouds.5 mph75%29.74 "Hg5 mi
3:00 PM90 °FPassing clouds.7 mph75%29.74 "Hg5 mi
2:30 PM90 °FPassing clouds.6 mph71%29.74 "HgN/A
2:00 PM90 °FPassing clouds.5 mph75%29.77 "HgN/A
1:30 PM88 °FPassing clouds.6 mph84%29.77 "HgN/A
1:00 PM88 °FPassing clouds.5 mph79%29.77 "HgN/A
12:30 PM88 °FPassing clouds.3 mph75%29.80 "HgN/A
12:00 PM86 °FPassing clouds.5 mph79%29.80 "HgN/A
11:30 AM86 °FPassing clouds.8 mph84%29.83 "HgN/A
11:00 AM84 °FPassing clouds.8 mph89%29.83 "HgN/A
10:30 AM86 °FPassing clouds.9 mph84%29.83 "HgN/A
10:00 AM86 °FPassing clouds.2 mph75%29.83 "HgN/A
9:30 AM86 °FPassing clouds.1 mph66%29.83 "HgN/A
9:00 AM86 °FPassing clouds.2 mph70%29.86 "HgN/A
8:30 AM84 °FPassing clouds.2 mph89%29.86 "HgN/A
8:00 AM81 °FPassing clouds.3 mph100%29.86 "HgN/A
7:30 AM81 °FPassing clouds.2 mph100%29.83 "HgN/A
7:00 AM79 °FPassing clouds.2 mph100%29.83 "HgN/A
6:30 AM75 °FPassing clouds.2 mph100%29.83 "HgN/A
6:00 AM75 °FPassing clouds.2 mph100%29.83 "HgN/A
5:30 AM75 °FPassing clouds.2 mph100%29.83 "HgN/A
5:00 AM75 °FPassing clouds.3 mph100%29.83 "Hg4 mi
4:30 AM75 °FLight rain. Passing clouds.3 mph100%29.83 "Hg4 mi
4:00 AM75 °FLight rain. Passing clouds.5 mph100%29.83 "Hg4 mi
3:30 AM75 °FLight rain. Passing clouds.3 mph100%29.83 "Hg4 mi
3:00 AM75 °FLight rain. Passing clouds.3 mph100%29.86 "Hg4 mi
2:30 AM75 °FMild.3 mph100%29.86 "HgN/A
2:00 AM75 °FMild.2 mph100%29.86 "HgN/A
Weather by CustomWeather, © 2016

See weather overviewHow to use our weather pages